Burns, OR

6:55 AM PST on January 22, 2018 (GMT -0800)
Burns Municipal

Weather History for KBNO - February, 2013

Change the Weather History Date:

Sunday, February 10, 2013

  Actual Average Record
Temperature  
Mean Temperature 33 °F 27 °F  
Max Temperature 42 °F 38 °F 61 °F (1971)
Min Temperature 24 °F 17 °F -11 °F (1999)
Degree Days  
Heating Degree Days 32 38  
Month to date heating degree days 349 384  
Since 1 July heating degree days 4749 4897  
Cooling Degree Days 0 0  
Month to date cooling degree days 0 0  
Year to date cooling degree days 0 0  
Moisture  
Dew Point 21 °F    
Average Humidity 63    
Maximum Humidity 85    
Minimum Humidity 41    
Precipitation  
Precipitation 0.00 in 0.03 in 0.48 in (1941)
Month to date precipitation 0.09 0.35  
Year to date precipitation 0.48 1.54  
Sea Level Pressure  
Sea Level Pressure 30.17 in    
Wind  
Wind Speed 10 mph (NW)    
Max Wind Speed 22 mph    
Max Gust Speed 28 mph    
Visibility 10 miles    
Events      
T = Trace of Precipitation, MM = Missing Value Source: NWS Daily Summary

Daily Weather History Graph

Daily Weather History Graph

Search for Another Location

Airport or City:

Trip Planner

Search our weather history database for the weather conditions in past years. The results will help you decide how hot, cold, wet, or windy it might be!

Date:

Astronomy

Feb. 10, 2013 Rise Set
Actual Time 7:00 AM PST 5:19 PM PST
Civil Twilight 6:31 AM PST 5:49 PM PST
Nautical Twilight 5:57 AM PST 6:23 PM PST
Astronomical Twilight 5:24 AM PST 6:56 PM PST
Moon 6:51 AM PST (2/10) 6:19 PM PST (2/10)
Length of Visible Light 11h 18m
Length of Day
10h 19m
New Moon, 0% of the Moon is Illuminated
Feb 10
New Moon
Feb 17
First Quarter
Feb 25
Full
Mar 4
Last Quarter
Mar 11
New

Hourly Weather History & Observations

Time (PST) Temp. Windchill Dew Point Humidity Pressure Visibility Wind Dir Wind Speed Gust Speed Precip Events Conditions
12:14 AM 30.2 °F 25.4 °F 26.6 °F 86% 30.07 in 10.0 mi SSW 4.6 mph - N/A   Overcast
12:53 AM 30.0 °F 25.2 °F 26.1 °F 85% 30.13 in 10.0 mi SSW 4.6 mph - N/A   Overcast
1:53 AM 33.1 °F 22.2 °F 24.1 °F 70% 30.13 in 10.0 mi NW 17.3 mph 21.9 mph N/A   Overcast
2:53 AM 32.0 °F 22.1 °F 21.0 °F 64% 30.12 in 10.0 mi NW 13.8 mph 24.2 mph N/A   Clear
3:53 AM 30.0 °F 18.7 °F 19.9 °F 66% 30.11 in 10.0 mi WNW 16.1 mph - N/A   Clear
4:53 AM 28.9 °F 18.2 °F 19.0 °F 67% 30.14 in 10.0 mi NW 13.8 mph - N/A   Clear
5:53 AM 27.0 °F 17.3 °F 19.0 °F 72% 30.16 in 10.0 mi WNW 10.4 mph - N/A   Clear
6:53 AM 27.0 °F 18.7 °F 19.0 °F 72% 30.17 in 10.0 mi WNW 8.1 mph - N/A   Clear
7:53 AM 30.0 °F 20.5 °F 19.9 °F 66% 30.20 in 10.0 mi NW 11.5 mph - N/A   Clear
8:53 AM 33.1 °F 24.9 °F 19.9 °F 59% 30.22 in 10.0 mi NW 10.4 mph 21.9 mph N/A   Partly Cloudy
9:53 AM 35.1 °F 28.6 °F 21.0 °F 57% 30.22 in 10.0 mi NNW 8.1 mph - N/A   Clear
10:53 AM 37.0 °F 29.3 °F 21.9 °F 54% 30.20 in 10.0 mi NNW 11.5 mph - N/A   Clear
11:53 AM 39.0 °F 33.4 °F 21.0 °F 49% 30.19 in 10.0 mi NW 8.1 mph - N/A   Clear
12:53 PM 39.9 °F 32.9 °F 19.0 °F 43% 30.17 in 10.0 mi WNW 11.5 mph - N/A   Clear
1:53 PM 41.0 °F 35.8 °F 19.9 °F 43% 30.15 in 10.0 mi WNW 8.1 mph - N/A   Clear
2:53 PM 39.9 °F 32.9 °F 21.9 °F 49% 30.16 in 10.0 mi NNW 11.5 mph - N/A   Clear
3:53 PM 37.9 °F 30.5 °F 21.0 °F 51% 30.16 in 10.0 mi NNW 11.5 mph - N/A   Clear
4:53 PM 35.1 °F 27.4 °F 21.0 °F 57% 30.18 in 10.0 mi NNW 10.4 mph - N/A   Clear
5:53 PM 30.9 °F 23.5 °F 19.9 °F 64% 30.20 in 10.0 mi NNW 8.1 mph - N/A   Clear
6:53 PM 30.0 °F 23.2 °F 19.9 °F 66% 30.21 in 10.0 mi NW 6.9 mph - N/A   Clear
7:53 PM 28.9 °F 18.6 °F 19.0 °F 67% 30.20 in 10.0 mi WNW 12.7 mph - N/A   Clear
8:53 PM 28.0 °F 18.6 °F 19.0 °F 69% 30.21 in 10.0 mi WNW 10.4 mph - N/A   Clear
9:53 PM 28.0 °F 20.8 °F 19.9 °F 72% 30.21 in 10.0 mi WNW 6.9 mph - N/A   Clear
10:53 PM 24.1 °F 18.2 °F 18.0 °F 77% 30.22 in 10.0 mi West 4.6 mph - N/A   Clear
11:53 PM 25.0 °F 17.1 °F 19.0 °F 78% 30.21 in 10.0 mi West 6.9 mph - N/A   Clear